Regional Weather Roundup
Issued by NWS

Home | Current Version | Previous Version | Text Only | Print | Product List | Glossary On
Versions: 1 2 3 4 5 6 7 8 9 10 11 12 13 14 15 16 17 18 19 20 21 22 23 24 25 26 27 28 29 30 31 32 33 34 35 36 37 38 39 40 41 42 43 44 45 46 47 48 49 50
000
ASUS43 KLMK 061710
RWRKY
KENTUCKY REGIONAL WEATHER ROUNDUP
NATIONAL WEATHER SERVICE LOUISVILLE KY
1200 PM EST SAT FEB 06 2016

NOTE "FAIR" INDICATES FEW OR NO CLOUDS BELOW 12,000 FEET
WITH NO SIGNIFICANT WEATHER AND/OR OBSTRUCTIONS TO VISIBILITY.

KYZ001>023-026-027-061>063-070>075-061800-
WESTERN AND SOUTH CENTRAL KENTUCKY

CITY           SKY/WX    TMP DP  RH WIND       PRES   REMARKS
PADUCAH        SUNNY     50  25  37 W8        30.36F
HENDERSON      SUNNY     46  28  49 CALM      30.35F
OWENSBORO      PTSUNNY   46  29  52 SW7       30.37S
HOPKINSVILLE   MOSUNNY   49  23  34 SW9       30.37F
BOWLING GREEN  MOSUNNY   48  21  34 W10       30.38F
GLASGOW        MOSUNNY   48  23  37 SW5       30.37F
$$

KYZ024-025-028>034-038-045-046-053-061800-
NORTH CENTRAL KENTUCKY

CITY           SKY/WX    TMP DP  RH WIND       PRES   REMARKS
LOUISVILLE/SDF PTSUNNY   45  24  43 W6        30.35F
LOUISVILLE/LOU MOSUNNY   41  24  51 W6        30.36F
FORT KNOX      MOSUNNY   45  24  44 VRB6      30.33F
$$

KYZ035>037-039>044-047>052-055>060-089>105-061800-
NORTHEAST KENTUCKY

CITY           SKY/WX    TMP DP  RH WIND       PRES   REMARKS
LEXINGTON      SUNNY     45  23  42 SW9       30.34F
COVINGTON      MOSUNNY   41  23  48 W8        30.33F
FRANKFORT      SUNNY     45  22  40 W8        30.33F
$$

KYZ054-064>069-076>088-106>120-061800-
SOUTHEAST KENTUCKY

CITY           SKY/WX    TMP DP  RH WIND       PRES   REMARKS
JACKSON        SUNNY     45  19  35 VRB5      30.34F
LONDON         SUNNY     45  18  34 SW6       30.36F
SOMERSET       SUNNY     45  21  39 SW7       30.39F
MIDDLESBORO    SUNNY     42  20  41 E3        30.39F
MONTICELLO     SUNNY     48  21  34 W10G16    30.39F
$$




USA.gov is the U.S. government's official web portal to all federal, state and local government web resources and services.